Flag for United Kingdom Weather past 2 weeks in Bristol, England, United Kingdom

46 °F

Light rain. Low clouds.

Feels Like: 41 °F
Forecast: 47 / 55 °F
Wind: 10 mph from Southwest

Location: Bristol / Lulsgate

Current Time: Nov 30, 2015 at 5:14:47 AM

Latest Report: Nov 30, 2015 at 4:20 AM

Visibility: N/A

Pressure: 30.04 "Hg

Humidity: 100%

Dew point: 46 °F

Location of BristolLocation

Historic Weather in Bristol — Graph


Bristol temperature yesterday

Maximum temperature yesterday: 52 °F (at 8:50 AM)
Minimum temperature yesterday: 46 °F (at 9:50 PM)
Average temperature yesterday: 50 °F

Past Weeks' High & Low Weather Summary

High57 °F (Nov 17, 12:50 PM)100% (Nov 16, 2:20 AM)30.27 "Hg (Nov 16, 2:20 AM)
Low28 °F (Nov 23, 5:50 AM)45% (Nov 21, 11:20 AM)29.50 "Hg (Nov 17, 1:20 PM)
Average47 °F87%29.89 "Hg
* Reported Nov 15 3:20 AM — Nov 30 3:20 AM, Bristol, Weather by CustomWeather, © 2015

Note: Actual official high and low records may vary slightly from our data, if they occured in-between our weather recording intervals... More about our weather records


Bristol weather history for previous 24 hours

Time TempWeatherWind HumidityBarometerVisibility
3:20 AM
Mon, Nov 30
45 °FRain. Low clouds.7 mph93%30.04 "Hg2 mi
2:50 AM45 °FLight rain. Overcast.6 mph87%30.04 "HgN/A
2:20 AM45 °FLight rain. Overcast.5 mph87%30.07 "HgN/A
1:50 AM45 °FOvercast.6 mph81%30.04 "HgN/A
1:20 AM45 °FOvercast.13 mph81%30.07 "HgN/A
12:20 AM46 °FOvercast.12 mph82%30.04 "HgN/A
11:50 PM
Sun, Nov 29
46 °FOvercast.15 mph82%30.04 "HgN/A
11:20 PM46 °FOvercast.14 mph82%30.04 "HgN/A
10:50 PM46 °FOvercast.15 mph82%30.04 "HgN/A
10:20 PM46 °FOvercast.16 mph87%30.01 "HgN/A
9:50 PM46 °FMostly cloudy.17 mph100%30.01 "HgN/A
9:20 PM48 °FOvercast.18 mph87%29.98 "HgN/A
8:50 PM48 °FPassing clouds.21 mph94%29.98 "HgN/A
8:20 PM48 °FLight rain. Partly cloudy.18 mph94%29.95 "Hg4 mi
7:50 PM48 °FHeavy rain. Mostly cloudy.24 mph94%29.92 "Hg1 mi
7:20 PM50 °FLight rain. Low clouds.28 mph94%29.92 "Hg4 mi
6:50 PM50 °FLight rain. Low clouds.28 mph94%29.89 "HgN/A
6:20 PM52 °FLight rain. Low clouds.26 mph88%29.86 "HgN/A
5:50 PM52 °FHeavy rain. Low clouds.32 mph94%29.86 "Hg2 mi
5:20 PM52 °FLow clouds.33 mph88%29.83 "HgN/A
4:50 PM52 °FLow clouds.31 mph88%29.83 "HgN/A
4:20 PM50 °FRain. Low clouds.30 mph94%29.80 "Hg2 mi
3:50 PM52 °FDrizzle. Low clouds.30 mph88%29.80 "Hg3 mi
3:20 PM52 °FLight rain. Overcast.35 mph88%29.80 "HgN/A
2:50 PM52 °FMostly cloudy.29 mph88%29.80 "Hg6 mi
2:20 PM52 °FLight rain. Overcast.32 mph88%29.80 "HgN/A
1:50 PM52 °FLight rain. Overcast.33 mph88%29.80 "Hg4 mi
1:20 PM52 °FOvercast.29 mph88%29.77 "HgN/A
12:50 PM52 °FOvercast.30 mph88%29.80 "Hg5 mi
12:20 PM52 °FLight rain. Mostly cloudy.30 mph88%29.80 "Hg4 mi
11:50 AM52 °FPartly sunny.31 mph82%29.77 "HgN/A
11:20 AM52 °FMostly cloudy.30 mph82%29.80 "HgN/A
10:50 AM50 °FMostly cloudy.28 mph94%29.80 "Hg6 mi
10:20 AM50 °FHeavy rain. Mostly cloudy.33 mph88%29.77 "Hg1 mi
9:50 AM52 °FLight rain. Partly sunny.32 mph82%29.77 "Hg4 mi
9:20 AM52 °FPartly sunny.26 mph77%29.77 "HgN/A
8:50 AM52 °FBroken clouds.25 mph77%29.77 "HgN/A
8:20 AM50 °FPartly sunny.26 mph82%29.77 "HgN/A
6:50 AM50 °FMostly cloudy.24 mph88%29.74 "HgN/A
6:20 AM50 °FMostly cloudy.25 mph88%29.74 "HgN/A
5:50 AM50 °FMostly cloudy.21 mph88%29.74 "HgN/A
5:20 AM50 °FPassing clouds.23 mph88%29.74 "HgN/A
Weather by CustomWeather, © 2015

See weather overviewHow to use our weather pages